EW5790 Weather Reports


Display with metric or nautical units.
time (UTC)temp
F
wind
direction
speed
MPH
gust
MPH
rain 1hr
in
rain 24hr
in
rain mn
in
humidity
%
barometer
mb
20260904093021 71 138 0.0 0.0 0.00 0.00 0.00 1 1014.7
20260904091529 71 138 0.0 0.0 0.00 0.00 0.00 1 1014.6
20260904090015 71 138 0.0 0.0 0.00 0.00 0.00 1 1014.6
20260904084506 71 138 0.0 0.0 0.00 0.00 0.00 1 1014.5
20260904083003 71 138 0.0 0.0 0.00 0.00 0.00 1 1014.6
20260904081559 71 138 0.0 0.0 0.00 0.00 0.00 1 1014.6
20260904080053 72 138 0.0 0.0 0.00 0.00 0.00 1 1014.5
20260904074600 72 138 0.0 0.0 0.00 0.00 0.00 1 1014.4
20260904073044 72 138 0.0 0.0 0.00 0.00 0.00 1 1014.5
20260904071558 72 138 0.0 0.0 0.00 0.00 0.00 1 1014.5
20260904070035 72 138 0.0 0.0 0.00 0.00 0.00 1 1014.6
20260904064534 72 138 0.0 0.0 0.00 0.00 0.00 1 1014.6
20260904063037 72 138 0.0 0.0 0.00 0.00 0.00 1 1014.7
20260904061522 73 138 0.0 0.0 0.00 0.00 0.00 1 1014.7
20260904060017 73 138 0.0 0.0 0.00 0.00 0.00 1 1014.8
20260904054513 73 138 0.0 0.0 0.00 0.00 0.00 1 1014.9
20260904053009 73 138 0.0 0.0 0.00 0.00 0.00 1 1015.0
20260904051507 74 138 0.0 0.0 0.00 0.00 0.00 1 1015.2
20260904050104 74 138 0.0 0.0 0.00 0.00 0.00 1 1015.3
20260904044607 74 138 0.0 0.0 0.00 0.00 0.00 1 1015.4
20260904043052 74 138 0.0 0.0 0.00 0.00 0.00 1 1015.5
20260904041547 74 138 0.0 0.0 0.00 0.00 0.00 1 1015.5
20260904040043 74 138 0.0 0.0 0.00 0.00 0.00 1 1015.4
20260904034538 75 138 0.0 0.0 0.00 0.00 0.00 1 1015.4
20260904033036 75 138 0.0 0.0 0.00 0.00 0.00 1 1015.6
20260904031529 75 138 0.0 0.0 0.00 0.00 0.00 1 1015.5
20260904030034 75 138 0.0 0.0 0.00 0.00 0.00 1 1015.5
20260904024522 76 138 0.0 0.0 0.00 0.00 0.00 1 1015.5
20260904023016 76 138 0.0 0.0 0.00 0.00 0.00 1 1015.5
20260904021529 76 138 0.0 0.0 0.00 0.00 0.00 1 1015.4
20260904020007 77 138 0.0 0.0 0.00 0.00 0.00 1 1015.3
20260904014503 78 138 0.0 0.0 0.00 0.00 0.00 1 1015.2
20260904013059 78 138 0.0 0.0 0.00 0.00 0.00 1 1015.0
20260904011555 79 138 0.0 0.0 0.00 0.00 0.00 2 1014.7
20260904010052 80 138 0.0 0.0 0.00 0.00 0.00 14 1014.6
20260904004547 81 138 0.0 0.0 0.00 0.00 0.00 25 1014.3
20260904003041 83 138 0.0 0.0 0.00 0.00 0.00 40 1014.0
20260904001539 85 138 0.0 0.0 0.00 0.00 0.00 51 1013.7
20260904000032 87 317 0.0 0.0 0.00 0.00 0.00 60 1013.6
20260903234527 89 317 0.0 0.0 0.00 0.00 0.00 63 1013.6
20260903233027 92 317 0.0 0.0 0.00 0.00 0.00 62 1013.5
20260903231518 95 317 0.0 0.0 0.00 0.00 0.00 57 1013.3
20260903230020 97 317 0.0 0.0 0.00 0.00 0.00 55 1013.2
20260903224510 98 318 0.0 0.0 0.00 0.00 0.00 53 1013.3
20260903223006 99 329 0.0 0.0 0.00 0.00 0.00 51 1013.3
20260903221501 99 344 0.0 0.0 0.00 0.00 0.00 44 1013.2
20260903220057 99 347 0.0 0.0 0.00 0.00 0.00 43 1013.2
20260903214602 99 333 0.0 0.0 0.00 0.00 0.00 43 1013.3
20260903213048 100 266 0.0 0.0 0.00 0.00 0.00 45 1013.4
20260903211549 98 333 0.0 0.0 0.00 0.00 0.00 46 1013.5
20260903210041 97 123 0.0 0.0 0.00 0.00 0.00 48 1013.8
20260903204534 98 126 0.0 0.0 0.00 0.00 0.00 49 1013.9
20260903203045 99 112 0.0 0.0 0.00 0.00 0.00 46 1014.1
20260903201526 96 307 0.0 0.0 0.00 0.00 0.00 49 1014.2
20260903200038 95 128 0.0 0.0 0.00 0.00 0.00 50 1014.3
20260903194534 95 99 0.0 0.0 0.00 0.00 0.00 51 1014.5
20260903193015 96 129 0.0 0.0 0.00 0.00 0.00 50 1014.5
20260903191534 96 219 0.0 0.0 0.00 0.00 0.00 49 1014.8
20260903190113 95 104 0.0 0.0 0.00 0.00 0.00 52 1015.0
20260903184609 95 263 0.0 0.0 0.00 0.00 0.00 51 1015.0
20260903183054 95 263 0.0 0.0 0.00 0.00 0.00 50 1015.3
20260903181603 95 116 0.0 0.0 0.00 0.00 0.00 49 1015.4
20260903180110 97 116 0.0 0.0 0.00 0.00 0.00 47 1015.5
20260903174543 98 164 0.0 0.0 0.00 0.00 0.00 47 1015.6
20260903173039 98 78 0.0 0.0 0.00 0.00 0.00 47 1015.7
20260903171541 96 336 0.0 0.0 0.00 0.00 0.00 48 1015.9
20260903170030 96 159 0.0 0.0 0.00 0.00 0.00 50 1016.1
20260903164525 96 266 0.0 0.0 0.00 0.00 0.00 49 1016.2
20260903163037 95 309 0.0 0.0 0.00 0.00 0.00 54 1016.4
20260903161517 94 209 0.0 0.0 0.00 0.00 0.00 54 1016.6
20260903160014 93 182 0.0 0.0 0.00 0.00 0.00 55 1016.7
20260903154508 93 262 0.0 0.0 0.00 0.00 0.00 56 1016.7
20260903153003 92 283 0.0 0.0 0.00 0.00 0.00 56 1016.7
20260903151600 91 331 0.0 0.0 0.00 0.00 0.00 58 1016.7
20260903150059 90 314 0.0 0.0 0.00 0.00 0.00 61 1016.7
20260903144555 89 318 0.0 0.0 0.00 0.00 0.00 61 1016.7
20260903143045 88 275 0.0 0.0 0.00 0.00 0.00 62 1016.9
20260903141540 87 123 0.0 0.0 0.00 0.00 0.00 57 1016.9
20260903140037 84 123 0.0 0.0 0.00 0.00 0.00 53 1017.0
20260903134532 81 123 0.0 0.0 0.00 0.00 0.00 24 1017.1
20260903133027 78 123 0.0 0.0 0.00 0.00 0.00 1 1017.3
20260903131523 77 123 0.0 0.0 0.00 0.00 0.00 1 1017.4
20260903130024 75 123 0.0 0.0 0.00 0.00 0.00 1 1017.6
20260903124514 73 123 0.0 0.0 0.00 0.00 0.00 1 1017.6
20260903123009 72 123 0.0 0.0 0.00 0.00 0.00 1 1017.6
20260903121506 70 123 0.0 0.0 0.00 0.00 0.00 1 1017.5
20260903120004 69 124 0.0 0.0 0.00 0.00 0.00 1 1017.5
20260903114559 69 124 0.0 0.0 0.00 0.00 0.00 1 1017.4
20260903113053 69 124 0.0 0.0 0.00 0.00 0.00 1 1017.2
20260903111554 69 124 0.0 0.0 0.00 0.00 0.00 1 1017.0
20260903110110 69 124 0.0 0.0 0.00 0.00 0.00 1 1016.9
20260903104540 69 124 0.0 0.0 0.00 0.00 0.00 1 1016.8
20260903103036 69 124 0.0 0.0 0.00 0.00 0.00 1 1016.6
20260903101531 69 124 0.0 0.0 0.00 0.00 0.00 1 1016.5
20260903100031 69 124 0.0 0.0 0.00 0.00 0.00 1 1016.6
20260903094544 69 124 0.0 0.0 0.00 0.00 0.00 1 1016.5